| time (UTC) | temp F | wind direction | speed knots | gust knots | rain 1hr in | rain 24hr in | rain mn in | humidity % | barometer mb |
| 20260506203403 | 63 | 132 | 0.0 | 1.7 | 0.00 | 0.00 | 0.00 | 75 | 1009.8 |
| 20260506202904 | 63 | 132 | 0.9 | 1.7 | 0.00 | 0.00 | 0.00 | 74 | 1009.8 |
| 20260506202404 | 63 | 132 | 1.7 | 2.6 | 0.00 | 0.00 | 0.00 | 74 | 1009.8 |
| 20260506201903 | 63 | 131 | 1.7 | 4.3 | 0.00 | 0.00 | 0.00 | 74 | 1009.8 |
| 20260506201403 | 63 | 140 | 4.3 | 5.2 | 0.00 | 0.00 | 0.00 | 73 | 1009.8 |
| 20260506200903 | 63 | 140 | 2.6 | 4.3 | 0.00 | 0.00 | 0.00 | 72 | 1009.8 |
| 20260506200403 | 63 | 132 | 1.7 | 4.3 | 0.00 | 0.00 | 0.00 | 72 | 1009.7 |
| 20260506195904 | 63 | 151 | 2.6 | 4.3 | 0.00 | 0.00 | 0.00 | 71 | 1009.6 |
| 20260506195403 | 64 | 134 | 3.5 | 4.3 | 0.00 | 0.00 | 0.00 | 71 | 1009.4 |
| 20260506194903 | 64 | 131 | 3.5 | 5.2 | 0.00 | 0.00 | 0.00 | 71 | 1009.3 |
| 20260506193403 | 64 | 136 | 2.6 | 4.3 | 0.00 | 0.00 | 0.00 | 69 | 1009.3 |
| 20260506192903 | 64 | 134 | 2.6 | 4.3 | 0.00 | 0.00 | 0.00 | 69 | 1009.3 |
| 20260506192403 | 64 | 135 | 2.6 | 4.3 | 0.00 | 0.00 | 0.00 | 69 | 1009.2 |
| 20260506191903 | 64 | 129 | 1.7 | 4.3 | 0.00 | 0.00 | 0.00 | 69 | 1009.2 |
| 20260506191404 | 64 | 117 | 3.5 | 5.2 | 0.00 | 0.00 | 0.00 | 69 | 1009.1 |
| 20260506190903 | 64 | 132 | 3.5 | 5.2 | 0.00 | 0.00 | 0.00 | 68 | 1009.1 |
| 20260506190403 | 65 | 138 | 3.5 | 5.2 | 0.00 | 0.00 | 0.00 | 68 | 1009.2 |
| 20260506185903 | 65 | 135 | 2.6 | 4.3 | 0.00 | 0.00 | 0.00 | 68 | 1009.2 |
| 20260506184903 | 65 | 132 | 4.3 | 6.1 | 0.00 | 0.00 | 0.00 | 67 | 1009.2 |
| 20260506184404 | 65 | 116 | 4.3 | 5.2 | 0.00 | 0.00 | 0.00 | 66 | 1009.2 |
| 20260506183903 | 65 | 129 | 1.7 | 5.2 | 0.00 | 0.00 | 0.00 | 66 | 1009.2 |
| 20260506182904 | 65 | 117 | 4.3 | 7.0 | 0.00 | 0.00 | 0.00 | 65 | 1009.1 |
| 20260506182403 | 65 | 114 | 2.6 | 5.2 | 0.00 | 0.00 | 0.00 | 66 | 1009.0 |
| 20260506181904 | 65 | 76 | 2.6 | 5.2 | 0.00 | 0.00 | 0.00 | 66 | 1009.0 |
| 20260506181404 | 65 | 122 | 5.2 | 6.1 | 0.00 | 0.00 | 0.00 | 66 | 1009.0 |
| 20260506180904 | 65 | 108 | 4.3 | 5.2 | 0.00 | 0.00 | 0.00 | 66 | 1009.1 |
| 20260506175904 | 65 | 113 | 4.3 | 6.1 | 0.00 | 0.00 | 0.00 | 66 | 1008.9 |
| 20260506175404 | 65 | 105 | 4.3 | 7.8 | 0.00 | 0.02 | 0.00 | 66 | 1009.0 |
| 20260506174904 | 65 | 125 | 2.6 | 7.0 | 0.00 | 0.03 | 0.00 | 66 | 1008.8 |
| 20260506174404 | 65 | 106 | 4.3 | 7.8 | 0.00 | 0.03 | 0.00 | 66 | 1008.9 |
| 20260506173903 | 65 | 109 | 5.2 | 7.8 | 0.00 | 0.03 | 0.00 | 65 | 1008.9 |
| 20260506173404 | 65 | 89 | 5.2 | 7.8 | 0.00 | 0.03 | 0.00 | 64 | 1008.9 |
| 20260506172904 | 65 | 113 | 4.3 | 8.7 | 0.00 | 0.03 | 0.00 | 64 | 1008.9 |
| 20260506172403 | 65 | 94 | 6.1 | 7.8 | 0.00 | 0.03 | 0.00 | 64 | 1008.9 |
| 20260506171903 | 65 | 98 | 5.2 | 10.4 | 0.00 | 0.03 | 0.00 | 65 | 1008.9 |
| 20260506171403 | 65 | 91 | 5.2 | 10.4 | 0.00 | 0.03 | 0.00 | 65 | 1008.9 |
| 20260506170904 | 66 | 84 | 5.2 | 10.4 | 0.00 | 0.03 | 0.00 | 66 | 1008.9 |
| 20260506170403 | 65 | 85 | 5.2 | 10.4 | 0.00 | 0.03 | 0.00 | 66 | 1008.9 |
| 20260506165904 | 65 | 76 | 5.2 | 10.4 | 0.00 | 0.03 | 0.00 | 66 | 1008.9 |
| 20260506165404 | 65 | 93 | 6.1 | 10.4 | 0.00 | 0.03 | 0.00 | 65 | 1009.0 |
| 20260506164903 | 65 | 90 | 7.0 | 10.4 | 0.00 | 0.03 | 0.00 | 67 | 1008.9 |
| 20260506164404 | 65 | 73 | 4.3 | 10.4 | 0.00 | 0.03 | 0.00 | 67 | 1009.0 |
| 20260506163904 | 65 | 84 | 7.0 | 10.4 | 0.00 | 0.03 | 0.00 | 66 | 1009.1 |
| 20260506163404 | 65 | 80 | 7.8 | 10.4 | 0.00 | 0.03 | 0.00 | 67 | 1009.1 |
| 20260506162903 | 65 | 87 | 6.1 | 10.4 | 0.00 | 0.03 | 0.00 | 68 | 1009.1 |
| 20260506162403 | 65 | 78 | 7.8 | 10.4 | 0.00 | 0.03 | 0.00 | 67 | 1009.2 |
| 20260506161403 | 66 | 74 | 6.1 | 11.3 | 0.00 | 0.03 | 0.00 | 68 | 1009.0 |
| 20260506160903 | 66 | 74 | 7.0 | 10.4 | 0.00 | 0.03 | 0.00 | 66 | 1009.0 |
| 20260506160404 | 66 | 98 | 7.0 | 10.4 | 0.00 | 0.03 | 0.00 | 68 | 1009.0 |
| 20260506155904 | 66 | 75 | 7.8 | 11.3 | 0.00 | 0.03 | 0.00 | 68 | 1009.0 |
| 20260506155403 | 66 | 80 | 5.2 | 11.3 | 0.00 | 0.03 | 0.00 | 67 | 1008.9 |
| 20260506154904 | 66 | 81 | 7.8 | 10.4 | 0.00 | 0.03 | 0.00 | 68 | 1009.0 |
| 20260506153903 | 66 | 77 | 6.1 | 12.2 | 0.00 | 0.03 | 0.00 | 66 | 1009.0 |
| 20260506153404 | 66 | 74 | 6.1 | 11.3 | 0.00 | 0.03 | 0.00 | 66 | 1009.1 |
| 20260506152404 | 66 | 85 | 7.8 | 11.3 | 0.00 | 0.03 | 0.00 | 67 | 1009.1 |
| 20260506151404 | 66 | 84 | 6.1 | 10.4 | 0.00 | 0.03 | 0.00 | 67 | 1009.0 |
| 20260506150404 | 65 | 74 | 6.1 | 10.4 | 0.00 | 0.03 | 0.00 | 67 | 1009.1 |
| 20260506145903 | 65 | 83 | 7.0 | 11.3 | 0.00 | 0.03 | 0.00 | 68 | 1009.1 |
| 20260506145404 | 65 | 87 | 7.8 | 10.4 | 0.00 | 0.03 | 0.00 | 68 | 1009.1 |
| 20260506144903 | 65 | 80 | 6.1 | 10.4 | 0.00 | 0.03 | 0.00 | 67 | 1009.2 |
| 20260506144403 | 65 | 88 | 6.1 | 10.4 | 0.00 | 0.03 | 0.00 | 67 | 1009.3 |
| 20260506143903 | 65 | 87 | 6.1 | 10.4 | 0.00 | 0.03 | 0.00 | 66 | 1009.4 |
| 20260506143403 | 65 | 69 | 6.1 | 10.4 | 0.00 | 0.03 | 0.00 | 66 | 1009.4 |
| 20260506142404 | 65 | 80 | 5.2 | 8.7 | 0.00 | 0.03 | 0.00 | 66 | 1009.6 |
| 20260506141903 | 65 | 73 | 4.3 | 10.4 | 0.00 | 0.03 | 0.00 | 66 | 1009.7 |
| 20260506141403 | 65 | 91 | 4.3 | 10.4 | 0.00 | 0.03 | 0.00 | 66 | 1009.8 |
| 20260506140903 | 65 | 104 | 6.1 | 11.3 | 0.00 | 0.03 | 0.00 | 66 | 1009.8 |
| 20260506140403 | 65 | 73 | 6.1 | 14.8 | 0.00 | 0.03 | 0.00 | 66 | 1009.8 |
| 20260506135404 | 64 | 79 | 7.0 | 12.2 | 0.00 | 0.03 | 0.00 | 66 | 1009.8 |
| 20260506134903 | 64 | 96 | 8.7 | 13.0 | 0.00 | 0.03 | 0.00 | 66 | 1009.8 |
| 20260506133904 | 64 | 71 | 7.0 | 11.3 | 0.00 | 0.04 | 0.00 | 68 | 1010.0 |
| 20260506133403 | 65 | 91 | 10.4 | 13.0 | 0.00 | 0.04 | 0.00 | 68 | 1010.0 |
| 20260506132904 | 65 | 87 | 8.7 | 13.0 | 0.00 | 0.04 | 0.00 | 67 | 1010.0 |
| 20260506131904 | 65 | 95 | 8.7 | 15.6 | 0.00 | 0.04 | 0.00 | 67 | 1010.1 |
| 20260506131404 | 65 | 82 | 7.8 | 12.2 | 0.00 | 0.04 | 0.00 | 67 | 1010.1 |
| 20260506130904 | 65 | 73 | 7.0 | 10.4 | 0.00 | 0.04 | 0.00 | 66 | 1010.0 |
| 20260506130404 | 65 | 49 | 4.3 | 11.3 | 0.00 | 0.04 | 0.00 | 68 | 1010.2 |
| 20260506125904 | 65 | 89 | 7.0 | 13.0 | 0.00 | 0.04 | 0.00 | 68 | 1010.1 |
| 20260506125404 | 65 | 83 | 8.7 | 12.2 | 0.00 | 0.04 | 0.00 | 66 | 1010.2 |
| 20260506124904 | 66 | 83 | 5.2 | 10.4 | 0.00 | 0.04 | 0.00 | 65 | 1010.2 |
| 20260506123904 | 66 | 57 | 6.1 | 10.4 | 0.00 | 0.04 | 0.00 | 66 | 1010.2 |
| 20260506122904 | 65 | 60 | 6.1 | 13.0 | 0.00 | 0.09 | 0.00 | 67 | 1010.2 |
| 20260506122404 | 66 | 87 | 6.1 | 12.2 | 0.00 | 0.11 | 0.00 | 68 | 1010.2 |
| 20260506121904 | 66 | 77 | 6.1 | 11.3 | 0.00 | 0.11 | 0.00 | 68 | 1010.4 |
| 20260506121404 | 66 | 61 | 8.7 | 11.3 | 0.00 | 0.11 | 0.00 | 66 | 1010.3 |
| 20260506120903 | 66 | 63 | 5.2 | 10.4 | 0.00 | 0.11 | 0.00 | 67 | 1010.4 |
| 20260506120404 | 66 | 74 | 6.1 | 11.3 | 0.00 | 0.11 | 0.00 | 66 | 1010.4 |
| 20260506114404 | 66 | 46 | 8.7 | 12.2 | 0.00 | 0.11 | 0.00 | 65 | 1010.4 |
| 20260506113904 | 66 | 52 | 6.1 | 12.2 | 0.00 | 0.11 | 0.00 | 64 | 1010.5 |
| 20260506113403 | 67 | 73 | 6.1 | 11.3 | 0.00 | 0.11 | 0.00 | 64 | 1010.6 |
| 20260506112902 | 67 | 83 | 6.1 | 10.4 | 0.00 | 0.11 | 0.00 | 65 | 1010.6 |
| 20260506112402 | 67 | 56 | 7.8 | 13.0 | 0.00 | 0.11 | 0.00 | 64 | 1010.6 |
| 20260506111402 | 66 | 68 | 5.2 | 10.4 | 0.00 | 0.11 | 0.00 | 66 | 1010.7 |
| 20260506110902 | 66 | 67 | 6.1 | 11.3 | 0.00 | 0.11 | 0.00 | 66 | 1010.9 |
| 20260506105903 | 66 | 36 | 5.2 | 10.4 | 0.00 | 0.11 | 0.00 | 66 | 1010.8 |
| 20260506104902 | 66 | 70 | 5.2 | 10.4 | 0.00 | 0.11 | 0.00 | 67 | 1010.8 |
| 20260506104402 | 66 | 49 | 5.2 | 10.4 | 0.00 | 0.11 | 0.00 | 67 | 1010.7 |
| 20260506103903 | 65 | 55 | 6.1 | 10.4 | 0.00 | 0.11 | 0.00 | 66 | 1010.9 |
| 20260506103402 | 66 | 73 | 4.3 | 11.3 | 0.00 | 0.11 | 0.00 | 66 | 1010.8 |
| 20260506102902 | 65 | 49 | 2.6 | 11.3 | 0.00 | 0.11 | 0.00 | 65 | 1010.8 |
| 20260506102402 | 65 | 25 | 4.3 | 10.4 | 0.00 | 0.11 | 0.00 | 65 | 1010.8 |
| 20260506101402 | 65 | 65 | 7.0 | 10.4 | 0.00 | 0.11 | 0.00 | 67 | 1010.8 |
| 20260506100902 | 65 | 45 | 4.3 | 7.0 | 0.00 | 0.11 | 0.00 | 68 | 1010.7 |
| 20260506100402 | 65 | 46 | 6.1 | 10.4 | 0.00 | 0.11 | 0.00 | 70 | 1010.7 |
| 20260506095903 | 65 | 57 | 6.1 | 10.4 | 0.00 | 0.11 | 0.00 | 69 | 1010.6 |
| 20260506095402 | 65 | 36 | 5.2 | 10.4 | 0.00 | 0.11 | 0.00 | 69 | 1010.8 |
| 20260506094402 | 65 | 44 | 5.2 | 11.3 | 0.00 | 0.11 | 0.00 | 69 | 1010.7 |
| 20260506093903 | 65 | 62 | 5.2 | 10.4 | 0.00 | 0.11 | 0.00 | 69 | 1010.6 |
| 20260506093402 | 65 | 52 | 7.8 | 12.2 | 0.00 | 0.11 | 0.00 | 69 | 1010.6 |
| 20260506092902 | 65 | 51 | 5.2 | 11.3 | 0.00 | 0.11 | 0.00 | 69 | 1010.5 |
| 20260506091402 | 65 | 16 | 4.3 | 7.8 | 0.00 | 0.11 | 0.00 | 69 | 1010.2 |
| 20260506090902 | 65 | 53 | 7.0 | 10.4 | 0.00 | 0.11 | 0.00 | 69 | 1010.2 |
| 20260506085902 | 65 | 58 | 4.3 | 8.7 | 0.00 | 0.11 | 0.00 | 70 | 1010.1 |
| 20260506085402 | 65 | 57 | 4.3 | 10.4 | 0.00 | 0.11 | 0.00 | 70 | 1010.1 |
| 20260506084902 | 65 | 64 | 4.3 | 10.4 | 0.00 | 0.11 | 0.00 | 70 | 1010.2 |
| 20260506084402 | 65 | 48 | 7.8 | 13.0 | 0.00 | 0.11 | 0.00 | 69 | 1010.2 |
| 20260506083902 | 65 | 59 | 5.2 | 12.2 | 0.00 | 0.11 | 0.00 | 70 | 1010.1 |
| 20260506083402 | 65 | 48 | 5.2 | 10.4 | 0.00 | 0.11 | 0.00 | 69 | 1010.1 |
| 20260506082902 | 65 | 66 | 4.3 | 10.4 | 0.00 | 0.11 | 0.00 | 70 | 1010.2 |
| 20260506082402 | 65 | 52 | 6.1 | 10.4 | 0.00 | 0.11 | 0.00 | 69 | 1010.2 |
| 20260506081902 | 65 | 71 | 5.2 | 8.7 | 0.00 | 0.11 | 0.00 | 70 | 1010.2 |
| 20260506080903 | 65 | 49 | 5.2 | 10.4 | 0.00 | 0.11 | 0.00 | 71 | 1010.1 |
| 20260506080402 | 65 | 43 | 5.2 | 10.4 | 0.00 | 0.11 | 0.00 | 72 | 1010.1 |
| 20260506073402 | 65 | 52 | 2.6 | 8.7 | 0.00 | 0.11 | 0.00 | 72 | 1010.1 |
| 20260506072904 | 65 | 54 | 3.5 | 8.7 | 0.00 | 0.11 | 0.00 | 71 | 1010.1 |
| 20260506072402 | 65 | 87 | 4.3 | 7.0 | 0.00 | 0.11 | 0.00 | 70 | 1010.1 |
| 20260506071902 | 65 | 54 | 2.6 | 5.2 | 0.00 | 0.11 | 0.00 | 72 | 1010.0 |
| 20260506071402 | 64 | 60 | 2.6 | 6.1 | 0.00 | 0.11 | 0.00 | 72 | 1010.0 |
| 20260506070902 | 64 | 65 | 4.3 | 8.7 | 0.00 | 0.11 | 0.00 | 71 | 1010.1 |
| 20260506070402 | 64 | 39 | 1.7 | 4.3 | 0.00 | 0.11 | 0.00 | 72 | 1010.0 |
| 20260506062402 | 64 | 44 | 7.8 | 10.4 | 0.00 | 0.11 | 0.00 | 71 | 1009.9 |
| 20260506061903 | 65 | 41 | 3.5 | 10.4 | 0.00 | 0.11 | 0.00 | 71 | 1009.9 |
| 20260506061403 | 65 | 47 | 2.6 | 7.0 | 0.00 | 0.11 | 0.00 | 70 | 1010.0 |
| 20260506060902 | 64 | 4 | 3.5 | 7.8 | 0.00 | 0.11 | 0.00 | 70 | 1009.9 |
| 20260506060402 | 64 | 38 | 3.5 | 7.8 | 0.00 | 0.11 | 0.00 | 71 | 1009.9 |
| 20260506051402 | 64 | 15 | 8.7 | 12.2 | 0.00 | 0.11 | 0.00 | 69 | 1009.3 |
| 20260506044902 | 64 | 15 | 8.7 | 13.9 | 0.00 | 0.11 | 0.00 | 69 | 1009.1 |
| 20260506044403 | 64 | 13 | 7.8 | 11.3 | 0.00 | 0.11 | 0.00 | 69 | 1009.1 |
| 20260506043902 | 64 | 13 | 7.8 | 11.3 | 0.00 | 0.11 | 0.00 | 69 | 1009.1 |
| 20260506043402 | 64 | 12 | 7.0 | 11.3 | 0.00 | 0.11 | 0.00 | 70 | 1009.0 |
| 20260506042903 | 64 | 20 | 7.8 | 12.2 | 0.00 | 0.11 | 0.00 | 71 | 1009.0 |
| 20260506041903 | 64 | 11 | 7.8 | 11.3 | 0.00 | 0.11 | 0.00 | 71 | 1009.0 |
| 20260506041402 | 64 | 15 | 7.8 | 11.3 | 0.00 | 0.11 | 0.00 | 72 | 1009.0 |
| 20260506040903 | 64 | 25 | 5.2 | 10.4 | 0.00 | 0.11 | 0.00 | 73 | 1009.0 |
| 20260506040403 | 64 | 34 | 6.1 | 11.3 | 0.00 | 0.11 | 0.00 | 73 | 1009.0 |
| 20260506035902 | 64 | 14 | 7.8 | 11.3 | 0.00 | 0.11 | 0.00 | 73 | 1008.9 |
| 20260506035402 | 65 | 31 | 7.8 | 11.3 | 0.00 | 0.11 | 0.00 | 75 | 1008.9 |
| 20260506034902 | 65 | 14 | 4.3 | 10.4 | 0.00 | 0.11 | 0.00 | 75 | 1009.0 |
| 20260506034403 | 65 | 24 | 4.3 | 6.1 | 0.00 | 0.11 | 0.00 | 75 | 1009.0 |
| 20260506033902 | 65 | 37 | 2.6 | 5.2 | 0.00 | 0.11 | 0.00 | 75 | 1009.0 |
| 20260506033402 | 65 | 35 | 1.7 | 4.3 | 0.00 | 0.11 | 0.00 | 75 | 1009.0 |
| 20260506032903 | 65 | 44 | 1.7 | 2.6 | 0.00 | 0.11 | 0.00 | 75 | 1009.0 |
| 20260506032403 | 65 | 38 | 1.7 | 5.2 | 0.00 | 0.11 | 0.00 | 74 | 1009.0 |
| 20260506031903 | 65 | 42 | 2.6 | 7.0 | 0.00 | 0.11 | 0.00 | 74 | 1009.0 |
| 20260506031402 | 65 | 49 | 4.3 | 8.7 | 0.00 | 0.11 | 0.00 | 74 | 1008.9 |
| 20260506030902 | 65 | 45 | 4.3 | 8.7 | 0.00 | 0.11 | 0.00 | 75 | 1008.9 |
| 20260506030403 | 65 | 56 | 4.3 | 7.0 | 0.00 | 0.11 | 0.00 | 76 | 1008.9 |
| 20260506025902 | 65 | 61 | 3.5 | 6.1 | 0.00 | 0.11 | 0.00 | 76 | 1008.9 |
| 20260506025402 | 65 | 47 | 4.3 | 7.8 | 0.00 | 0.11 | 0.00 | 76 | 1008.9 |
| 20260506024902 | 65 | 46 | 3.5 | 7.0 | 0.00 | 0.11 | 0.00 | 76 | 1008.9 |
| 20260506024402 | 65 | 59 | 2.6 | 8.7 | 0.00 | 0.11 | 0.00 | 77 | 1008.9 |
| 20260506023903 | 65 | 48 | 3.5 | 6.1 | 0.00 | 0.11 | 0.00 | 77 | 1008.9 |
| 20260506023402 | 65 | 48 | 2.6 | 8.7 | 0.00 | 0.11 | 0.00 | 76 | 1008.9 |
| 20260506022403 | 65 | 45 | 6.1 | 11.3 | 0.00 | 0.11 | 0.00 | 76 | 1008.9 |
| 20260506021402 | 65 | 26 | 4.3 | 7.8 | 0.00 | 0.11 | 0.00 | 76 | 1009.0 |
| 20260506020903 | 65 | 50 | 5.2 | 10.4 | 0.00 | 0.11 | 0.00 | 77 | 1009.0 |
| 20260506020402 | 65 | 45 | 4.3 | 12.2 | 0.00 | 0.11 | 0.00 | 77 | 1009.0 |
| 20260506015903 | 65 | 37 | 5.2 | 10.4 | 0.00 | 0.11 | 0.00 | 77 | 1009.0 |
| 20260506015403 | 65 | 31 | 2.6 | 11.3 | 0.00 | 0.11 | 0.00 | 78 | 1009.0 |
| 20260506014902 | 65 | 46 | 6.1 | 10.4 | 0.00 | 0.11 | 0.00 | 78 | 1009.0 |
| 20260506014402 | 64 | 41 | 5.2 | 11.3 | 0.00 | 0.11 | 0.00 | 78 | 1009.0 |
| 20260506013903 | 64 | 24 | 7.0 | 13.9 | 0.00 | 0.11 | 0.00 | 79 | 1009.0 |
| 20260506013402 | 64 | 15 | 7.0 | 10.4 | 0.00 | 0.11 | 0.00 | 80 | 1009.0 |
| 20260506012903 | 65 | 19 | 7.0 | 12.2 | 0.00 | 0.11 | 0.00 | 80 | 1009.0 |
| 20260506011903 | 65 | 47 | 7.0 | 11.3 | 0.00 | 0.11 | 0.00 | 80 | 1009.0 |
| 20260506011402 | 65 | 14 | 6.1 | 11.3 | 0.00 | 0.11 | 0.00 | 80 | 1009.0 |
| 20260506010903 | 65 | 30 | 9.6 | 13.9 | 0.00 | 0.11 | 0.00 | 80 | 1009.0 |
| 20260506010402 | 65 | 32 | 7.0 | 13.0 | 0.00 | 0.11 | 0.00 | 82 | 1009.0 |
| 20260506005402 | 65 | 26 | 10.4 | 13.9 | 0.00 | 0.11 | 0.00 | 83 | 1009.0 |
| 20260506004902 | 65 | 28 | 7.8 | 13.0 | 0.00 | 0.11 | 0.00 | 84 | 1009.0 |
| 20260506003902 | 65 | 13 | 8.7 | 13.0 | 0.00 | 0.11 | 0.00 | 84 | 1009.0 |
| 20260506003403 | 65 | 31 | 5.2 | 11.3 | 0.00 | 0.11 | 0.00 | 84 | 1009.0 |
| 20260506002903 | 65 | 336 | 4.3 | 7.8 | 0.00 | 0.11 | 0.00 | 83 | 1009.0 |
| 20260506002402 | 65 | 290 | 4.3 | 7.8 | 0.00 | 0.11 | 0.00 | 83 | 1009.0 |
| 20260506001903 | 65 | 291 | 6.1 | 11.3 | 0.00 | 0.11 | 0.00 | 83 | 1008.9 |
| 20260506001403 | 65 | 308 | 5.2 | 10.4 | 0.00 | 0.11 | 0.00 | 83 | 1008.9 |
| 20260505235903 | 65 | 271 | 7.8 | 11.3 | 0.00 | 0.11 | 0.00 | 82 | 1009.0 |
| 20260505235403 | 65 | 269 | 7.8 | 13.9 | 0.00 | 0.11 | 0.00 | 81 | 1009.0 |
| 20260505234903 | 65 | 265 | 10.4 | 14.8 | 0.00 | 0.11 | 0.00 | 81 | 1009.0 |
| 20260505234403 | 65 | 256 | 10.4 | 17.4 | 0.00 | 0.11 | 0.00 | 80 | 1009.1 |
| 20260505233402 | 65 | 251 | 9.6 | 13.9 | 0.00 | 0.11 | 0.00 | 79 | 1009.1 |
| 20260505232903 | 65 | 255 | 8.7 | 14.8 | 0.00 | 0.11 | 0.00 | 78 | 1009.0 |
| 20260505232403 | 65 | 237 | 7.8 | 13.9 | 0.00 | 0.11 | 0.00 | 78 | 1009.0 |
| 20260505231903 | 65 | 217 | 7.8 | 14.8 | 0.00 | 0.11 | 0.00 | 77 | 1009.0 |
| 20260505231403 | 65 | 240 | 7.8 | 10.4 | 0.00 | 0.11 | 0.00 | 76 | 1008.9 |
| 20260505230902 | 65 | 250 | 7.0 | 14.8 | 0.00 | 0.11 | 0.00 | 74 | 1008.8 |
| 20260505230403 | 65 | 235 | 7.8 | 11.3 | 0.00 | 0.11 | 0.00 | 74 | 1008.7 |
| 20260505225902 | 65 | 254 | 5.2 | 10.4 | 0.00 | 0.11 | 0.00 | 71 | 1008.7 |
| 20260505225403 | 65 | 229 | 5.2 | 11.3 | 0.00 | 0.11 | 0.00 | 68 | 1008.7 |
| 20260505224902 | 66 | 227 | 7.0 | 11.3 | 0.00 | 0.11 | 0.00 | 63 | 1008.7 |
| 20260505223902 | 67 | 239 | 6.1 | 10.4 | 0.00 | 0.11 | 0.00 | 53 | 1008.6 |
| 20260505223403 | 68 | 257 | 6.1 | 10.4 | 0.00 | 0.11 | 0.00 | 52 | 1008.6 |
| 20260505222902 | 68 | 274 | 6.1 | 10.4 | 0.00 | 0.11 | 0.00 | 48 | 1008.5 |
| 20260505221902 | 70 | 315 | 5.2 | 8.7 | 0.00 | 0.11 | 0.00 | 46 | 1008.5 |
| 20260505221403 | 70 | 284 | 1.7 | 2.6 | 0.00 | 0.11 | 0.00 | 44 | 1008.3 |
| 20260505220903 | 70 | 227 | 1.7 | 2.6 | 0.00 | 0.11 | 0.00 | 43 | 1008.2 |
| 20260505220402 | 70 | 268 | 2.6 | 6.1 | 0.00 | 0.11 | 0.00 | 44 | 1008.2 |
| 20260505215903 | 70 | 240 | 1.7 | 6.1 | 0.00 | 0.11 | 0.11 | 44 | 1008.2 |
| 20260505215402 | 70 | 225 | 2.6 | 5.2 | 0.00 | 0.11 | 0.11 | 44 | 1008.2 |
| 20260505214903 | 70 | 245 | 2.6 | 7.0 | 0.00 | 0.11 | 0.11 | 44 | 1008.2 |
| 20260505214402 | 70 | 212 | 4.3 | 7.0 | 0.00 | 0.11 | 0.11 | 44 | 1008.2 |
| 20260505213902 | 70 | 259 | 1.7 | 6.1 | 0.00 | 0.11 | 0.11 | 46 | 1008.3 |
| 20260505213403 | 70 | 222 | 2.6 | 5.2 | 0.00 | 0.11 | 0.11 | 45 | 1008.2 |
| 20260505212903 | 70 | 298 | 1.7 | 2.6 | 0.00 | 0.11 | 0.11 | 47 | 1008.3 |
| 20260505212402 | 70 | 237 | 4.3 | 6.1 | 0.00 | 0.11 | 0.11 | 46 | 1008.2 |
| 20260505211903 | 70 | 205 | 6.1 | 8.7 | 0.00 | 0.11 | 0.11 | 46 | 1008.3 |
| 20260505211403 | 70 | 243 | 5.2 | 10.4 | 0.00 | 0.11 | 0.11 | 46 | 1008.3 |
| 20260505210902 | 70 | 193 | 5.2 | 8.7 | 0.00 | 0.11 | 0.11 | 45 | 1008.3 |
| 20260505210403 | 70 | 208 | 2.6 | 8.7 | 0.00 | 0.11 | 0.11 | 44 | 1008.3 |
| 20260505205403 | 70 | 225 | 4.3 | 7.0 | 0.00 | 0.11 | 0.11 | 44 | 1008.3 |
| 20260505204903 | 70 | 197 | 6.1 | 10.4 | 0.00 | 0.11 | 0.11 | 42 | 1008.2 |
| 20260505204402 | 70 | 235 | 4.3 | 11.3 | 0.00 | 0.11 | 0.11 | 42 | 1008.3 |
| 20260505203902 | 70 | 221 | 7.0 | 11.3 | 0.00 | 0.11 | 0.11 | 42 | 1008.2 |